Simultaneous Nadir Overpasses (SNOs) Predictions

Prediction of SNOs between GOES-16 and METOP-B Satellite Orbit:

Table of predicted SNOs for the next 14.0 days since TLE Epoch: 3/15/2019
Index Date Time (GOES-16) GOES-16 Lat,Lon METOP-B Lat,Lon Distance(km) Time Diff (sec)
1 03/17/2019 02:34:58 -0.01, -75.19 -0.23, -76.08 101.36 80
2 03/18/2019 02:11:39 -0.00, -75.19 0.91, -71.09 467.76 80
3 03/19/2019 14:30:33 0.00, -75.21 0.08, -75.66 50.52 80
4 03/22/2019 02:31:34 -0.00, -75.22 -0.01, -75.25 4.25 80
5 03/24/2019 14:29:48 0.00, -75.25 -0.09, -74.82 48.95 80
6 03/26/2019 02:48:50 -0.00, -75.26 -0.92, -79.42 473.63 80
7 03/27/2019 02:25:31 0.00, -75.28 0.22, -74.43 96.91 80
8 03/28/2019 14:44:23 -0.00, -75.31 0.82, -78.99 419.42 80
9 03/29/2019 14:23:45 -0.00, -75.33 -0.32, -74.00 151.53 80




NCC Satellite Simultaneous Nadir Overpasses (SNOs) Prediction Service
